Location: Howard City Library
(37.4684°N, 96.2639°W)
Time: 23:10:16
(UTC+00:00)

ATLAS 5 CENTAUR R/B - Pass Details

Date: 18 February 2020
Orbit: 548 x 1111 km, 63.4° (Epoch: 03 April)

Event Time Altitude Azimuth Distance (km) Brightness Sun altitude
Rises 01:00:29 0° 317° (NW) 3,463 6.0 -11.4°
Reaches altitude 10° 01:03:03 10° 308° (NW) 2,607 5.4 -11.9°
Maximum altitude 01:08:33 35° 245° (WSW) 1,563 4.3 -13.0°
Drops below altitude 10° 01:14:38 10° 183° (S) 2,885 5.1 -14.2°
Sets 01:17:37 0° 175° (S) 3,881 5.6 -14.8°
